Time,TemperatureF,DewpointF,PressureIn,WindDirection,WindDirectionDegrees,WindSpeedMPH,WindSpeedGustMPH,Humidity,HourlyPrecipIn,Conditions,Clouds,dailyrainin,SoftwareType,DateUTC
2013-01-01 00:14:00,59.2,52.7,30.09,ESE,112,2.2,-999.0,79,-99.99,,,0.00,Acu-Link.com,2013-01-01 05:14:00,
2013-01-01 00:29:00,59.0,52.8,30.08,East,90,1.7,-999.0,80,-99.99,,,0.00,Acu-Link.com,2013-01-01 05:29:00,
2013-01-01 00:45:00,58.6,52.4,30.08,ENE,67,1.7,-999.0,80,-99.99,,,0.00,Acu-Link.com,2013-01-01 05:45:00,
2013-01-01 01:00:00,58.3,52.8,30.08,ENE,67,1.7,-999.0,82,-99.99,,,0.00,Acu-Link.com,2013-01-01 06:00:00,
2013-01-01 01:15:00,57.2,51.8,30.08,SW,225,0.0,-999.0,82,-99.99,,,0.00,Acu-Link.com,2013-01-01 06:15:00,
2013-01-01 01:30:00,56.3,50.9,30.08,SW,225,0.0,-999.0,82,-99.99,,,0.00,Acu-Link.com,2013-01-01 06:30:00,
2013-01-01 01:46:00,55.9,50.5,30.08,SSW,202,0.0,-999.0,82,-99.99,,,0.00,Acu-Link.com,2013-01-01 06:46:00,
2013-01-01 02:01:00,55.6,50.5,30.07,South,180,0.0,-999.0,83,-99.99,,,0.00,Acu-Link.com,2013-01-01 07:01:00,
2013-01-01 02:16:00,55.8,51.0,30.07,SSW,202,0.0,-999.0,84,-99.99,,,0.00,Acu-Link.com,2013-01-01 07:16:00,
2013-01-01 02:32:00,55.9,51.5,30.07,SSW,202,0.0,-999.0,85,-99.99,,,0.00,Acu-Link.com,2013-01-01 07:32:00,
2013-01-01 02:47:00,56.5,52.4,30.06,South,180,0.0,-999.0,86,-99.99,,,0.00,Acu-Link.com,2013-01-01 07:47:00,
2013-01-01 03:02:00,56.7,52.6,30.05,SSE,157,1.1,-999.0,86,-99.99,,,0.00,Acu-Link.com,2013-01-01 08:02:00,
2013-01-01 03:18:00,56.7,52.6,30.05,South,180,0.0,-999.0,86,-99.99,,,0.00,Acu-Link.com,2013-01-01 08:18:00,
2013-01-01 03:33:00,56.7,52.6,30.05,South,180,0.0,-999.0,86,-99.99,,,0.00,Acu-Link.com,2013-01-01 08:33:00,
2013-01-01 03:48:00,57.0,52.9,30.04,SSW,202,1.1,-999.0,86,-99.99,,,0.00,Acu-Link.com,2013-01-01 08:48:00,
2013-01-01 04:07:00,56.7,52.6,30.03,SSW,202,0.0,-999.0,86,-99.99,,,0.00,Acu-Link.com,2013-01-01 09:07:00,
2013-01-01 04:22:00,56.7,52.9,30.03,SSW,202,1.7,-999.0,87,-99.99,,,0.00,Acu-Link.com,2013-01-01 09:22:00,
2013-01-01 04:37:00,56.7,52.9,30.03,SSE,157,2.7,-999.0,87,-99.99,,,0.00,Acu-Link.com,2013-01-01 09:37:00,
2013-01-01 04:52:00,56.5,52.7,30.02,SW,225,0.0,-999.0,87,-99.99,,,0.00,Acu-Link.com,2013-01-01 09:52:00,
2013-01-01 05:08:00,56.1,52.3,30.01,South,180,1.7,-999.0,87,-99.99,,,0.00,Acu-Link.com,2013-01-01 10:08:00,
2013-01-01 05:23:00,56.1,52.3,30.01,SSW,202,1.1,-999.0,87,-99.99,,,0.00,Acu-Link.com,2013-01-01 10:23:00,
2013-01-01 05:38:00,55.9,52.1,30.01,South,180,0.0,-999.0,87,-99.99,,,0.00,Acu-Link.com,2013-01-01 10:38:00,
2013-01-01 05:54:00,55.4,51.6,30.01,SSW,202,0.0,-999.0,87,-99.99,,,0.00,Acu-Link.com,2013-01-01 10:54:00,
2013-01-01 06:09:00,54.9,51.1,30.02,SSW,202,0.0,-999.0,87,-99.99,,,0.00,Acu-Link.com,2013-01-01 11:09:00,
2013-01-01 06:24:00,54.7,50.9,30.02,SSW,202,0.0,-999.0,87,-99.99,,,0.00,Acu-Link.com,2013-01-01 11:24:00,
2013-01-01 06:40:00,54.5,50.7,30.02,SSW,202,0.0,-999.0,87,-99.99,,,0.00,Acu-Link.com,2013-01-01 11:40:00,
2013-01-01 06:55:00,54.3,50.5,30.02,SSW,202,0.0,-999.0,87,-99.99,,,0.00,Acu-Link.com,2013-01-01 11:55:00,
2013-01-01 07:10:00,54.3,50.5,30.03,SSW,202,0.0,-999.0,87,-99.99,,,0.00,Acu-Link.com,2013-01-01 12:10:00,
2013-01-01 07:25:00,54.5,50.7,30.03,SW,225,1.7,-999.0,87,-99.99,,,0.00,Acu-Link.com,2013-01-01 12:25:00,
2013-01-01 07:41:00,54.9,51.4,30.03,WSW,247,1.1,-999.0,88,-99.99,,,0.00,Acu-Link.com,2013-01-01 12:41:00,
2013-01-01 07:56:00,55.4,51.9,30.04,West,270,0.0,-999.0,88,-99.99,,,0.00,Acu-Link.com,2013-01-01 12:56:00,
2013-01-01 08:11:00,56.5,53.0,30.04,NNE,22,0.0,-999.0,88,-99.99,,,0.00,Acu-Link.com,2013-01-01 13:11:00,
2013-01-01 08:27:00,57.4,53.9,30.05,NNE,22,1.7,-999.0,88,-99.99,,,0.00,Acu-Link.com,2013-01-01 13:27:00,
2013-01-01 08:42:00,60.3,56.7,30.04,NNE,22,1.7,-999.0,88,-99.99,,,0.00,Acu-Link.com,2013-01-01 13:42:00,
2013-01-01 08:57:00,63.1,56.5,30.04,NNE,22,1.7,-999.0,79,-99.99,,,0.00,Acu-Link.com,2013-01-01 13:57:00,
2013-01-01 09:12:00,63.9,56.2,30.04,SSW,202,1.7,-999.0,76,-99.99,,,0.00,Acu-Link.com,2013-01-01 14:12:00,
2013-01-01 09:28:00,65.5,57.0,30.05,ESE,112,3.7,-999.0,74,-99.99,,,0.00,Acu-Link.com,2013-01-01 14:28:00,
2013-01-01 09:43:00,65.8,56.9,30.05,ESE,112,3.2,-999.0,73,-99.99,,,0.00,Acu-Link.com,2013-01-01 14:43:00,
2013-01-01 09:59:00,68.4,58.2,30.05,SW,225,1.7,-999.0,70,-99.99,,,0.00,Acu-Link.com,2013-01-01 14:59:00,
2013-01-01 10:14:00,70.3,58.4,30.05,ESE,112,2.2,-999.0,66,-99.99,,,0.00,Acu-Link.com,2013-01-01 15:14:00,
2013-01-01 10:29:00,71.4,58.6,30.05,ESE,112,3.7,-999.0,64,-99.99,,,0.00,Acu-Link.com,2013-01-01 15:29:00,
2013-01-01 10:44:00,72.5,58.7,30.04,SSW,202,3.2,-999.0,62,-99.99,,,0.00,Acu-Link.com,2013-01-01 15:44:00,
2013-01-01 11:00:00,73.6,59.3,30.04,ESE,112,4.7,-999.0,61,-99.99,,,0.00,Acu-Link.com,2013-01-01 16:00:00,
2013-01-01 11:15:00,73.0,58.3,30.03,SSW,202,3.2,-999.0,60,-99.99,,,0.00,Acu-Link.com,2013-01-01 16:15:00,
2013-01-01 11:30:00,73.9,58.7,30.02,SSW,202,3.7,-999.0,59,-99.99,,,0.00,Acu-Link.com,2013-01-01 16:30:00,
2013-01-01 11:45:00,74.7,58.9,30.01,SSE,157,5.8,-999.0,58,-99.99,,,0.00,Acu-Link.com,2013-01-01 16:45:00,
2013-01-01 12:01:00,74.5,58.7,30.00,SSW,202,3.2,-999.0,58,-99.99,,,0.00,Acu-Link.com,2013-01-01 17:01:00,
2013-01-01 12:16:00,74.3,58.1,30.00,SSW,202,3.7,-999.0,57,-99.99,,,0.00,Acu-Link.com,2013-01-01 17:16:00,
2013-01-01 12:31:00,73.9,58.2,29.99,SW,225,5.3,-999.0,58,-99.99,,,0.00,Acu-Link.com,2013-01-01 17:31:00,
2013-01-01 12:47:00,75.6,58.8,29.98,WSW,247,6.3,-999.0,56,-99.99,,,0.00,Acu-Link.com,2013-01-01 17:47:00,
2013-01-01 13:02:00,75.0,58.2,29.97,SSE,157,3.7,-999.0,56,-99.99,,,0.00,Acu-Link.com,2013-01-01 18:02:00,
2013-01-01 13:17:00,75.0,58.2,29.96,SE,135,6.8,-999.0,56,-99.99,,,0.00,Acu-Link.com,2013-01-01 18:17:00,
2013-01-01 13:33:00,75.7,58.9,29.95,SSE,157,9.4,-999.0,56,-99.99,,,0.00,Acu-Link.com,2013-01-01 18:33:00,
2013-01-01 13:48:00,75.9,58.6,29.95,SSW,202,5.3,-999.0,55,-99.99,,,0.00,Acu-Link.com,2013-01-01 18:48:00,
2013-01-01 14:03:00,75.9,59.1,29.94,NNE,22,3.7,-999.0,56,-99.99,,,0.00,Acu-Link.com,2013-01-01 19:03:00,
2013-01-01 14:19:00,76.3,58.9,29.93,SW,225,2.7,-999.0,55,-99.99,,,0.00,Acu-Link.com,2013-01-01 19:19:00,
2013-01-01 14:34:00,75.7,58.9,29.93,SSW,202,1.1,-999.0,56,-99.99,,,0.00,Acu-Link.com,2013-01-01 19:34:00,
2013-01-01 14:49:00,76.6,59.2,29.92,SE,135,3.2,-999.0,55,-99.99,,,0.00,Acu-Link.com,2013-01-01 19:49:00,
2013-01-01 15:04:00,76.3,58.9,29.92,SW,225,3.7,-999.0,55,-99.99,,,0.00,Acu-Link.com,2013-01-01 20:04:00,
2013-01-01 15:20:00,76.1,58.7,29.92,ESE,112,5.8,-999.0,55,-99.99,,,0.00,Acu-Link.com,2013-01-01 20:20:00,
2013-01-01 15:35:00,76.5,59.1,29.92,SW,225,4.2,-999.0,55,-99.99,,,0.00,Acu-Link.com,2013-01-01 20:35:00,
2013-01-01 15:50:00,76.3,58.9,29.92,ESE,112,6.3,-999.0,55,-99.99,,,0.00,Acu-Link.com,2013-01-01 20:50:00,
2013-01-01 16:06:00,76.1,58.7,29.91,SE,135,4.7,-999.0,55,-99.99,,,0.00,Acu-Link.com,2013-01-01 21:06:00,
2013-01-01 16:21:00,76.1,59.2,29.91,SE,135,2.7,-999.0,56,-99.99,,,0.00,Acu-Link.com,2013-01-01 21:21:00,
2013-01-01 16:36:00,75.4,59.1,29.92,NW,315,1.7,-999.0,57,-99.99,,,0.00,Acu-Link.com,2013-01-01 21:36:00,
2013-01-01 16:52:00,74.3,58.6,29.91,WSW,247,1.7,-999.0,58,-99.99,,,0.00,Acu-Link.com,2013-01-01 21:52:00,
2013-01-01 17:07:00,73.6,58.4,29.92,SW,225,0.0,-999.0,59,-99.99,,,0.00,Acu-Link.com,2013-01-01 22:07:00,
2013-01-01 17:22:00,72.1,57.9,29.92,SW,225,0.0,-999.0,61,-99.99,,,0.00,Acu-Link.com,2013-01-01 22:22:00,
2013-01-01 17:38:00,71.1,57.4,29.92,SSW,202,0.0,-999.0,62,-99.99,,,0.00,Acu-Link.com,2013-01-01 22:38:00,
2013-01-01 17:53:00,70.2,57.4,29.92,SSW,202,0.0,-999.0,64,-99.99,,,0.00,Acu-Link.com,2013-01-01 22:53:00,
2013-01-01 18:08:00,69.4,57.1,29.92,SSW,202,0.0,-999.0,65,-99.99,,,0.00,Acu-Link.com,2013-01-01 23:08:00,
2013-01-01 18:24:00,68.9,56.6,29.93,SSW,202,0.0,-999.0,65,-99.99,,,0.00,Acu-Link.com,2013-01-01 23:24:00,
2013-01-01 18:39:00,68.2,56.8,29.91,SW,225,0.0,-999.0,67,-99.99,,,0.00,Acu-Link.com,2013-01-01 23:39:00,
2013-01-01 18:54:00,67.1,56.2,29.91,SSW,202,0.0,-999.0,68,-99.99,,,0.00,Acu-Link.com,2013-01-01 23:54:00,
2013-01-01 19:10:00,66.4,55.9,29.92,SW,225,0.0,-999.0,69,-99.99,,,0.00,Acu-Link.com,2013-01-02 00:10:00,
2013-01-01 19:25:00,65.7,55.6,29.92,SW,225,0.0,-999.0,70,-99.99,,,0.00,Acu-Link.com,2013-01-02 00:25:00,
2013-01-01 19:40:00,65.3,56.0,29.92,SW,225,0.0,-999.0,72,-99.99,,,0.00,Acu-Link.com,2013-01-02 00:40:00,
2013-01-01 19:56:00,65.3,56.0,29.92,SW,225,0.0,-999.0,72,-99.99,,,0.00,Acu-Link.com,2013-01-02 00:56:00,
2013-01-01 20:11:00,66.0,56.7,29.92,SSW,202,0.0,-999.0,72,-99.99,,,0.00,Acu-Link.com,2013-01-02 01:11:00,
2013-01-01 20:26:00,66.4,56.7,29.92,South,180,0.0,-999.0,71,-99.99,,,0.00,Acu-Link.com,2013-01-02 01:26:00,
2013-01-01 20:42:00,65.5,55.8,29.92,WSW,247,0.0,-999.0,71,-99.99,,,0.00,Acu-Link.com,2013-01-02 01:42:00,
2013-01-01 20:57:00,64.6,55.7,29.92,SSW,202,0.0,-999.0,73,-99.99,,,0.00,Acu-Link.com,2013-01-02 01:57:00,
2013-01-01 21:12:00,63.7,55.3,29.92,West,270,0.0,-999.0,74,-99.99,,,0.00,Acu-Link.com,2013-01-02 02:12:00,
2013-01-01 21:28:00,62.6,54.6,29.92,WSW,247,0.0,-999.0,75,-99.99,,,0.00,Acu-Link.com,2013-01-02 02:28:00,
2013-01-01 21:43:00,61.9,55.0,29.92,SSW,202,0.0,-999.0,78,-99.99,,,0.00,Acu-Link.com,2013-01-02 02:43:00,
2013-01-01 21:58:00,61.9,55.3,29.92,SSW,202,0.0,-999.0,79,-99.99,,,0.00,Acu-Link.com,2013-01-02 02:58:00,
2013-01-01 22:13:00,61.7,55.5,29.92,SSW,202,0.0,-999.0,80,-99.99,,,0.00,Acu-Link.com,2013-01-02 03:13:00,
2013-01-01 22:29:00,61.0,54.8,29.92,SSW,202,0.0,-999.0,80,-99.99,,,0.00,Acu-Link.com,2013-01-02 03:29:00,
2013-01-01 22:44:00,60.6,54.7,29.93,SSW,202,0.0,-999.0,81,-99.99,,,0.00,Acu-Link.com,2013-01-02 03:44:00,
2013-01-01 22:59:00,60.6,55.4,29.92,SSW,202,0.0,-999.0,83,-99.99,,,0.00,Acu-Link.com,2013-01-02 03:59:00,
2013-01-01 23:15:00,60.6,55.4,29.92,SSW,202,0.0,-999.0,83,-99.99,,,0.00,Acu-Link.com,2013-01-02 04:15:00,
2013-01-01 23:30:00,60.1,54.6,29.92,SSW,202,0.0,-999.0,82,-99.99,,,0.00,Acu-Link.com,2013-01-02 04:30:00,
2013-01-01 23:45:00,60.1,54.9,29.91,SW,225,0.0,-999.0,83,-99.99,,,0.00,Acu-Link.com,2013-01-02 04:45:00,